| time (UTC) | temp C | wind direction | speed KPH | gust KPH | rain 1hr cm | rain 24hr cm | rain mn cm | humidity % | barometer mb |
| 20260505113319 | 27 | 131 | 12.9 | 24.1 | 0.00 | 0.00 | 0.00 | 84 | 1028.0 |
| 20260505112819 | 27 | 130 | 11.3 | 22.5 | 0.00 | 0.00 | 0.00 | 84 | 1027.9 |
| 20260505112319 | 27 | 129 | 14.5 | 24.1 | 0.00 | 0.00 | 0.00 | 83 | 1027.8 |
| 20260505111819 | 27 | 134 | 12.9 | 24.1 | 0.00 | 0.00 | 0.00 | 82 | 1027.9 |
| 20260505110802 | 26 | 126 | 11.3 | 20.9 | 0.00 | 0.00 | 0.00 | 82 | 1027.9 |
| 20260505110302 | 26 | 132 | 9.7 | 20.9 | 0.00 | 0.00 | 0.00 | 84 | 1027.6 |
| 20260505101747 | 26 | 129 | 9.7 | 20.9 | 0.00 | 0.00 | 0.00 | 86 | 1027.4 |
| 20260505101247 | 25 | 130 | 9.7 | 20.9 | 0.00 | 0.00 | 0.00 | 87 | 1027.5 |
| 20260505100747 | 25 | 121 | 9.7 | 20.9 | 0.00 | 0.00 | 0.00 | 87 | 1027.2 |
| 20260505100247 | 25 | 118 | 9.7 | 20.9 | 0.00 | 0.00 | 0.00 | 87 | 1027.6 |
| 20260505094716 | 25 | 124 | 8.0 | 20.9 | 0.00 | 0.00 | 0.00 | 87 | 1027.0 |
| 20260505094216 | 25 | 107 | 6.4 | 20.9 | 0.00 | 0.00 | 0.00 | 87 | 1027.2 |
| 20260505093715 | 25 | 131 | 9.7 | 20.9 | 0.00 | 0.00 | 0.00 | 87 | 1027.2 |
| 20260505093215 | 25 | 106 | 8.0 | 20.9 | 0.00 | 0.00 | 0.00 | 87 | 1027.1 |
| 20260505092715 | 25 | 108 | 8.0 | 20.9 | 0.00 | 0.00 | 0.00 | 87 | 1026.9 |
| 20260505092215 | 25 | 102 | 8.0 | 20.9 | 0.00 | 0.00 | 0.00 | 87 | 1027.0 |
| 20260505091159 | 25 | 105 | 9.7 | 20.9 | 0.00 | 0.00 | 0.00 | 87 | 1026.9 |
| 20260505090659 | 25 | 107 | 8.0 | 20.9 | 0.00 | 0.00 | 0.00 | 86 | 1027.0 |
| 20260505090159 | 25 | 103 | 8.0 | 22.5 | 0.00 | 0.00 | 0.00 | 86 | 1026.7 |
| 20260505085659 | 25 | 82 | 9.7 | 22.5 | 0.00 | 0.00 | 0.00 | 87 | 1026.6 |
| 20260505085159 | 25 | 115 | 9.7 | 20.9 | 0.00 | 0.00 | 0.00 | 87 | 1026.7 |
| 20260505084659 | 25 | 129 | 11.3 | 20.9 | 0.00 | 0.00 | 0.00 | 87 | 1026.8 |
| 20260505083129 | 25 | 117 | 9.7 | 25.7 | 0.00 | 0.00 | 0.00 | 87 | 1026.4 |
| 20260505082628 | 25 | 134 | 11.3 | 25.7 | 0.00 | 0.00 | 0.00 | 87 | 1026.5 |
| 20260505082128 | 25 | 144 | 9.7 | 22.5 | 0.00 | 0.00 | 0.00 | 87 | 1026.4 |
| 20260505081628 | 25 | 135 | 11.3 | 22.5 | 0.00 | 0.00 | 0.00 | 87 | 1026.4 |
| 20260505080057 | 25 | 137 | 11.3 | 22.5 | 0.00 | 0.00 | 0.00 | 87 | 1026.4 |
| 20260505075557 | 25 | 127 | 9.7 | 22.5 | 0.00 | 0.00 | 0.00 | 87 | 1026.5 |
| 20260505075057 | 25 | 127 | 9.7 | 20.9 | 0.00 | 0.00 | 0.00 | 87 | 1026.2 |
| 20260505074557 | 25 | 129 | 9.7 | 20.9 | 0.00 | 0.00 | 0.00 | 87 | 1026.3 |
| 20260505074057 | 25 | 138 | 11.3 | 20.9 | 0.00 | 0.00 | 0.00 | 87 | 1026.4 |
| 20260505073042 | 25 | 111 | 9.7 | 20.9 | 0.00 | 0.00 | 0.00 | 86 | 1026.0 |
| 20260505072542 | 25 | 137 | 11.3 | 20.9 | 0.00 | 0.00 | 0.00 | 86 | 1026.2 |
| 20260505072042 | 26 | 135 | 11.3 | 20.9 | 0.00 | 0.00 | 0.00 | 86 | 1026.3 |
| 20260505071542 | 26 | 120 | 12.9 | 20.9 | 0.00 | 0.00 | 0.00 | 86 | 1026.2 |
| 20260505071042 | 26 | 131 | 9.7 | 20.9 | 0.00 | 0.00 | 0.00 | 86 | 1026.4 |
| 20260505070542 | 26 | 110 | 8.0 | 20.9 | 0.00 | 0.00 | 0.00 | 86 | 1026.1 |
| 20260505070042 | 26 | 118 | 9.7 | 20.9 | 0.00 | 0.00 | 0.00 | 86 | 1026.3 |
| 20260505065542 | 26 | 123 | 11.3 | 22.5 | 0.00 | 0.00 | 0.00 | 85 | 1026.3 |
| 20260505065042 | 26 | 102 | 8.0 | 22.5 | 0.00 | 0.00 | 0.00 | 85 | 1026.5 |
| 20260505064541 | 26 | 105 | 11.3 | 22.5 | 0.00 | 0.00 | 0.00 | 85 | 1026.3 |
| 20260505064041 | 26 | 117 | 11.3 | 22.5 | 0.00 | 0.00 | 0.00 | 86 | 1026.3 |
| 20260505063541 | 26 | 113 | 11.3 | 22.5 | 0.00 | 0.00 | 0.00 | 85 | 1026.3 |
| 20260505063041 | 26 | 132 | 12.9 | 22.5 | 0.00 | 0.00 | 0.00 | 85 | 1026.2 |
| 20260505062540 | 26 | 132 | 12.9 | 22.5 | 0.00 | 0.00 | 0.00 | 86 | 1026.4 |
| 20260505062040 | 26 | 98 | 11.3 | 22.5 | 0.00 | 0.00 | 0.00 | 86 | 1026.5 |
| 20260505061540 | 26 | 109 | 11.3 | 22.5 | 0.00 | 0.00 | 0.00 | 86 | 1026.6 |
| 20260505061040 | 26 | 105 | 9.7 | 20.9 | 0.00 | 0.00 | 0.00 | 86 | 1026.5 |
| 20260505060540 | 26 | 112 | 11.3 | 20.9 | 0.00 | 0.00 | 0.00 | 86 | 1026.6 |
| 20260505060040 | 26 | 89 | 8.0 | 20.9 | 0.00 | 0.00 | 0.00 | 86 | 1026.5 |
| 20260505055540 | 26 | 107 | 8.0 | 20.9 | 0.00 | 0.00 | 0.00 | 86 | 1026.4 |
| 20260505055040 | 26 | 104 | 9.7 | 20.9 | 0.00 | 0.00 | 0.00 | 86 | 1026.4 |
| 20260505054540 | 26 | 101 | 8.0 | 20.9 | 0.00 | 0.00 | 0.00 | 86 | 1026.4 |
| 20260505054040 | 26 | 91 | 9.7 | 20.9 | 0.00 | 0.00 | 0.00 | 86 | 1026.5 |
| 20260505053540 | 26 | 94 | 9.7 | 20.9 | 0.00 | 0.00 | 0.00 | 86 | 1026.8 |
| 20260505053039 | 26 | 96 | 11.3 | 20.9 | 0.00 | 0.00 | 0.00 | 86 | 1026.4 |
| 20260505052539 | 26 | 107 | 11.3 | 20.9 | 0.00 | 0.00 | 0.00 | 86 | 1026.6 |
| 20260505051524 | 26 | 107 | 11.3 | 20.9 | 0.00 | 0.00 | 0.00 | 86 | 1027.0 |
| 20260505051024 | 26 | 118 | 9.7 | 20.9 | 0.00 | 0.00 | 0.00 | 86 | 1026.9 |
| 20260505050524 | 26 | 105 | 8.0 | 22.5 | 0.00 | 0.00 | 0.00 | 86 | 1027.0 |
| 20260505041439 | 25 | 98 | 8.0 | 20.9 | 0.00 | 0.00 | 0.00 | 89 | 1027.2 |
| 20260505040424 | 25 | 126 | 12.9 | 20.9 | 0.00 | 0.00 | 0.00 | 89 | 1027.2 |
| 20260505035924 | 25 | 106 | 8.0 | 20.9 | 0.00 | 0.00 | 0.00 | 89 | 1027.5 |
| 20260505035423 | 25 | 143 | 11.3 | 20.9 | 0.00 | 0.00 | 0.00 | 89 | 1027.3 |
| 20260505034923 | 25 | 111 | 8.0 | 20.9 | 0.00 | 0.00 | 0.00 | 89 | 1027.1 |
| 20260505034423 | 25 | 127 | 12.9 | 20.9 | 0.00 | 0.00 | 0.00 | 89 | 1027.2 |
| 20260505033922 | 25 | 110 | 9.7 | 20.9 | 0.00 | 0.00 | 0.00 | 89 | 1027.4 |
| 20260505032907 | 25 | 148 | 12.9 | 20.9 | 0.00 | 0.00 | 0.00 | 90 | 1027.5 |
| 20260505032407 | 25 | 137 | 12.9 | 20.9 | 0.00 | 0.00 | 0.00 | 90 | 1027.6 |
| 20260505031906 | 25 | 130 | 11.3 | 20.9 | 0.00 | 0.00 | 0.00 | 90 | 1027.4 |
| 20260505031406 | 25 | 137 | 8.0 | 19.3 | 0.00 | 0.00 | 0.00 | 90 | 1027.5 |
| 20260505030906 | 25 | 109 | 8.0 | 19.3 | 0.00 | 0.00 | 0.00 | 90 | 1027.6 |
| 20260505030406 | 25 | 117 | 8.0 | 20.9 | 0.00 | 0.00 | 0.00 | 90 | 1027.8 |
| 20260505025905 | 25 | 121 | 8.0 | 20.9 | 0.00 | 0.00 | 0.00 | 90 | 1027.6 |
| 20260505025405 | 25 | 124 | 8.0 | 20.9 | 0.00 | 0.00 | 0.00 | 90 | 1027.6 |
| 20260505024905 | 25 | 108 | 6.4 | 20.9 | 0.00 | 0.00 | 0.00 | 90 | 1027.6 |
| 20260505024405 | 25 | 112 | 8.0 | 20.9 | 0.00 | 0.00 | 0.00 | 89 | 1027.8 |
| 20260505023905 | 25 | 108 | 8.0 | 20.9 | 0.00 | 0.00 | 0.00 | 89 | 1027.7 |
| 20260505023405 | 26 | 125 | 9.7 | 20.9 | 0.00 | 0.00 | 0.00 | 88 | 1027.4 |
| 20260505022905 | 26 | 130 | 9.7 | 20.9 | 0.00 | 0.00 | 0.00 | 87 | 1027.7 |
| 20260505022405 | 26 | 126 | 11.3 | 20.9 | 0.00 | 0.00 | 0.00 | 87 | 1027.7 |
| 20260505021904 | 26 | 113 | 8.0 | 20.9 | 0.00 | 0.00 | 0.00 | 86 | 1027.7 |
| 20260505020849 | 26 | 134 | 11.3 | 20.9 | 0.00 | 0.00 | 0.00 | 86 | 1027.5 |
| 20260505020349 | 26 | 124 | 11.3 | 20.9 | 0.00 | 0.00 | 0.00 | 86 | 1027.5 |
| 20260505015849 | 26 | 131 | 8.0 | 20.9 | 0.00 | 0.00 | 0.00 | 86 | 1027.6 |
| 20260505015348 | 26 | 126 | 6.4 | 20.9 | 0.00 | 0.00 | 0.00 | 86 | 1027.2 |
| 20260505014847 | 26 | 123 | 8.0 | 20.9 | 0.00 | 0.00 | 0.00 | 86 | 1027.7 |
| 20260505014347 | 26 | 120 | 6.4 | 20.9 | 0.00 | 0.00 | 0.00 | 86 | 1027.7 |
| 20260505013846 | 26 | 119 | 6.4 | 20.9 | 0.00 | 0.00 | 0.00 | 86 | 1027.7 |
| 20260505013346 | 26 | 125 | 8.0 | 20.9 | 0.00 | 0.00 | 0.00 | 85 | 1027.5 |
| 20260505012845 | 26 | 113 | 8.0 | 20.9 | 0.00 | 0.00 | 0.00 | 85 | 1027.5 |
| 20260505011316 | 26 | 90 | 8.0 | 20.9 | 0.00 | 0.00 | 0.00 | 85 | 1027.4 |
| 20260505010815 | 26 | 114 | 6.4 | 20.9 | 0.00 | 0.00 | 0.00 | 84 | 1027.2 |
| 20260505005800 | 26 | 127 | 9.7 | 22.5 | 0.00 | 0.00 | 0.00 | 84 | 1027.3 |
| 20260505005300 | 26 | 131 | 9.7 | 22.5 | 0.00 | 0.00 | 0.00 | 84 | 1027.3 |
| 20260505004759 | 26 | 117 | 6.4 | 22.5 | 0.00 | 0.00 | 0.00 | 84 | 1027.3 |
| 20260505004259 | 26 | 121 | 9.7 | 22.5 | 0.00 | 0.00 | 0.00 | 84 | 1027.1 |
| 20260505003759 | 26 | 120 | 8.0 | 22.5 | 0.00 | 0.00 | 0.00 | 83 | 1027.2 |
| 20260505003259 | 26 | 129 | 9.7 | 22.5 | 0.00 | 0.00 | 0.00 | 83 | 1027.1 |
| 20260505002245 | 26 | 140 | 9.7 | 20.9 | 0.00 | 0.00 | 0.00 | 83 | 1026.7 |
| 20260505001744 | 26 | 132 | 8.0 | 22.5 | 0.00 | 0.00 | 0.00 | 84 | 1026.8 |
| 20260505001244 | 26 | 141 | 11.3 | 22.5 | 0.00 | 0.00 | 0.00 | 84 | 1026.9 |
| 20260505000743 | 26 | 144 | 11.3 | 20.9 | 0.00 | 0.00 | 0.00 | 85 | 1026.6 |
| 20260505000244 | 26 | 136 | 9.7 | 17.7 | 0.00 | 0.00 | 0.00 | 85 | 1026.5 |
| 20260504235744 | 26 | 144 | 9.7 | 17.7 | 0.00 | 0.00 | 0.00 | 86 | 1026.4 |
| 20260504235243 | 26 | 141 | 8.0 | 17.7 | 0.00 | 0.00 | 0.00 | 85 | 1026.6 |
| 20260504234743 | 26 | 136 | 9.7 | 17.7 | 0.00 | 0.00 | 0.00 | 85 | 1026.7 |
| 20260504234244 | 26 | 138 | 8.0 | 17.7 | 0.00 | 0.00 | 0.00 | 85 | 1026.5 |
| 20260504233743 | 26 | 140 | 9.7 | 17.7 | 0.00 | 0.00 | 0.00 | 85 | 1026.4 |
| 20260504233242 | 26 | 137 | 8.0 | 17.7 | 0.00 | 0.00 | 0.00 | 84 | 1026.6 |
| 20260504232743 | 26 | 136 | 8.0 | 17.7 | 0.00 | 0.00 | 0.00 | 84 | 1026.5 |
| 20260504232243 | 26 | 139 | 9.7 | 17.7 | 0.00 | 0.00 | 0.00 | 84 | 1026.4 |
| 20260504231743 | 26 | 144 | 8.0 | 17.7 | 0.00 | 0.00 | 0.00 | 84 | 1026.4 |
| 20260504231243 | 26 | 144 | 8.0 | 17.7 | 0.00 | 0.00 | 0.00 | 84 | 1026.3 |
| 20260504230742 | 26 | 141 | 8.0 | 17.7 | 0.00 | 0.00 | 0.00 | 85 | 1026.3 |
| 20260504225728 | 26 | 137 | 8.0 | 19.3 | 0.00 | 0.00 | 0.00 | 84 | 1026.3 |
| 20260504225226 | 26 | 139 | 8.0 | 19.3 | 0.00 | 0.00 | 0.00 | 84 | 1026.1 |
| 20260504224727 | 26 | 129 | 6.4 | 19.3 | 0.00 | 0.00 | 0.00 | 84 | 1026.0 |
| 20260504224226 | 26 | 140 | 8.0 | 19.3 | 0.00 | 0.00 | 0.00 | 84 | 1026.0 |
| 20260504223210 | 26 | 142 | 8.0 | 19.3 | 0.00 | 0.00 | 0.00 | 84 | 1025.8 |
| 20260504222154 | 26 | 147 | 9.7 | 19.3 | 0.00 | 0.00 | 0.00 | 84 | 1025.8 |
| 20260504221654 | 26 | 141 | 9.7 | 19.3 | 0.00 | 0.00 | 0.00 | 84 | 1025.9 |
| 20260504221154 | 26 | 137 | 8.0 | 20.9 | 0.00 | 0.00 | 0.00 | 84 | 1025.6 |
| 20260504220654 | 26 | 151 | 12.9 | 20.9 | 0.00 | 0.00 | 0.00 | 84 | 1025.5 |
| 20260504220153 | 26 | 133 | 8.0 | 25.7 | 0.00 | 0.00 | 0.00 | 85 | 1025.6 |
| 20260504215652 | 26 | 136 | 8.0 | 25.7 | 0.00 | 0.00 | 0.00 | 85 | 1025.4 |
| 20260504215152 | 26 | 137 | 8.0 | 25.7 | 0.00 | 0.00 | 0.00 | 85 | 1025.4 |
| 20260504214137 | 26 | 135 | 12.9 | 25.7 | 0.00 | 0.00 | 0.00 | 84 | 1025.2 |
| 20260504213637 | 26 | 135 | 8.0 | 20.9 | 0.00 | 0.00 | 0.00 | 85 | 1025.2 |
| 20260504213137 | 26 | 143 | 9.7 | 24.1 | 0.00 | 0.00 | 0.00 | 85 | 1025.0 |
| 20260504212637 | 27 | 138 | 12.9 | 24.1 | 0.00 | 0.00 | 0.00 | 84 | 1024.9 |
| 20260504212137 | 27 | 147 | 9.7 | 20.9 | 0.00 | 0.00 | 0.00 | 85 | 1025.1 |
| 20260504211121 | 27 | 133 | 6.4 | 27.4 | 0.00 | 0.00 | 0.00 | 84 | 1024.7 |
| 20260504210621 | 27 | 146 | 11.3 | 27.4 | 0.00 | 0.00 | 0.00 | 84 | 1024.8 |
| 20260504210121 | 27 | 146 | 11.3 | 22.5 | 0.00 | 0.00 | 0.00 | 83 | 1025.0 |
| 20260504205621 | 27 | 139 | 11.3 | 20.9 | 0.00 | 0.00 | 0.00 | 83 | 1025.1 |
| 20260504205121 | 27 | 158 | 9.7 | 19.3 | 0.00 | 0.00 | 0.00 | 83 | 1025.0 |
| 20260504204620 | 27 | 151 | 6.4 | 19.3 | 0.00 | 0.00 | 0.00 | 83 | 1025.1 |
| 20260504204120 | 27 | 153 | 6.4 | 19.3 | 0.00 | 0.00 | 0.00 | 84 | 1024.8 |
| 20260504203619 | 27 | 163 | 8.0 | 19.3 | 0.00 | 0.00 | 0.00 | 85 | 1025.0 |
| 20260504203118 | 27 | 160 | 9.7 | 19.3 | 0.00 | 0.00 | 0.00 | 86 | 1025.0 |
| 20260504202618 | 26 | 146 | 6.4 | 20.9 | 0.00 | 0.00 | 0.00 | 87 | 1024.9 |
| 20260504202118 | 26 | 161 | 9.7 | 20.9 | 0.00 | 0.00 | 0.00 | 88 | 1024.8 |
| 20260504201103 | 26 | 128 | 8.0 | 20.9 | 0.00 | 0.00 | 0.00 | 88 | 1024.8 |
| 20260504200048 | 26 | 143 | 11.3 | 20.9 | 0.00 | 0.00 | 0.00 | 87 | 1024.9 |
| 20260504195548 | 26 | 163 | 11.3 | 19.3 | 0.00 | 0.00 | 0.00 | 87 | 1025.0 |
| 20260504195048 | 26 | 142 | 11.3 | 19.3 | 0.00 | 0.00 | 0.00 | 87 | 1025.0 |
| 20260504194548 | 26 | 143 | 9.7 | 20.9 | 0.00 | 0.00 | 0.00 | 88 | 1025.1 |
| 20260504194048 | 26 | 130 | 9.7 | 20.9 | 0.00 | 0.00 | 0.00 | 88 | 1025.0 |
| 20260504193548 | 26 | 113 | 11.3 | 20.9 | 0.00 | 0.00 | 0.00 | 88 | 1025.0 |
| 20260504193048 | 26 | 133 | 11.3 | 20.9 | 0.00 | 0.00 | 0.00 | 88 | 1025.3 |
| 20260504192548 | 26 | 152 | 11.3 | 20.9 | 0.00 | 0.00 | 0.00 | 88 | 1025.2 |
| 20260504191533 | 26 | 111 | 9.7 | 20.9 | 0.00 | 0.00 | 0.00 | 88 | 1025.3 |
| 20260504191033 | 27 | 122 | 9.7 | 20.9 | 0.00 | 0.00 | 0.00 | 88 | 1025.3 |
| 20260504190532 | 26 | 109 | 11.3 | 20.9 | 0.00 | 0.00 | 0.00 | 87 | 1025.2 |
| 20260504185002 | 26 | 117 | 11.3 | 22.5 | 0.00 | 0.00 | 0.00 | 87 | 1025.3 |
| 20260504183431 | 26 | 149 | 17.7 | 25.7 | 0.00 | 0.00 | 0.00 | 86 | 1025.6 |
| 20260504182931 | 27 | 131 | 14.5 | 25.7 | 0.00 | 0.00 | 0.00 | 85 | 1025.5 |
| 20260504182430 | 27 | 114 | 14.5 | 25.7 | 0.00 | 0.00 | 0.00 | 86 | 1025.5 |
| 20260504181930 | 27 | 59 | 11.3 | 22.5 | 0.00 | 0.00 | 0.00 | 85 | 1025.7 |
| 20260504181430 | 27 | 93 | 12.9 | 22.5 | 0.00 | 0.00 | 0.00 | 85 | 1026.0 |
| 20260504180930 | 27 | 154 | 12.9 | 22.5 | 0.00 | 0.00 | 0.00 | 85 | 1025.8 |
| 20260504180430 | 27 | 116 | 14.5 | 22.5 | 0.00 | 0.00 | 0.00 | 86 | 1025.8 |
| 20260504175930 | 27 | 107 | 11.3 | 24.1 | 0.00 | 0.00 | 0.00 | 86 | 1025.7 |
| 20260504175430 | 26 | 123 | 12.9 | 24.1 | 0.00 | 0.00 | 0.00 | 86 | 1025.9 |
| 20260504174930 | 26 | 114 | 12.9 | 20.9 | 0.00 | 0.00 | 0.00 | 86 | 1026.1 |
| 20260504174430 | 26 | 137 | 11.3 | 20.9 | 0.00 | 0.00 | 0.00 | 87 | 1026.1 |
| 20260504173930 | 26 | 149 | 14.5 | 20.9 | 0.00 | 0.00 | 0.00 | 88 | 1026.1 |
| 20260504173430 | 26 | 145 | 12.9 | 20.9 | 0.00 | 0.00 | 0.00 | 90 | 1026.1 |
| 20260504172930 | 26 | 120 | 11.3 | 22.5 | 0.00 | 0.00 | 0.00 | 90 | 1026.2 |
| 20260504171915 | 25 | 111 | 11.3 | 22.5 | 0.00 | 0.00 | 0.00 | 90 | 1026.6 |
| 20260504171415 | 25 | 141 | 11.3 | 24.1 | 0.00 | 0.00 | 0.00 | 90 | 1026.7 |
| 20260504170915 | 25 | 151 | 11.3 | 24.1 | 0.00 | 0.00 | 0.00 | 89 | 1026.7 |
| 20260504170415 | 25 | 153 | 16.1 | 32.2 | 0.00 | 0.00 | 0.00 | 88 | 1026.8 |
| 20260504160343 | 28 | 110 | 14.5 | 25.7 | 0.00 | 0.00 | 0.00 | 78 | 1027.6 |
| 20260504150325 | 28 | 119 | 14.5 | 27.4 | 0.00 | 0.00 | 0.00 | 78 | 1027.7 |
| 20260504141252 | 27 | 108 | 19.3 | 32.2 | 0.00 | 0.00 | 0.00 | 82 | 1028.0 |
| 20260504140752 | 27 | 92 | 17.7 | 33.8 | 0.00 | 0.00 | 0.00 | 82 | 1027.9 |
| 20260504130732 | 26 | 118 | 9.7 | 24.1 | 0.00 | 0.00 | 0.00 | 87 | 1027.8 |
| 20260504130232 | 26 | 78 | 14.5 | 24.1 | 0.00 | 0.00 | 0.00 | 87 | 1028.0 |